Location: Shepherdstown, WV
(39.4326°N, 77.8042°W)
Time: 15:49:40
(UTC-04:00)

Tiros 1 despin weight - Pass Details

Date: 01 August 2021
Orbit: 593 x 641 km, 48.2° (Epoch: 18 September)

Event Time Altitude Azimuth Distance (km) Brightness Sun altitude
Rises 13:21:52 0° 216° (SW) 2,904 ? 68.4°
Reaches altitude 10° 13:24:16 10° 208° (SSW) 2,006 ? 68.3°
Maximum altitude 13:28:36 40° 139° (SE) 937 ? 68.3°
Drops below altitude 10° 13:32:58 10° 70° (ENE) 2,029 ? 68.1°
Sets 13:35:24 0° 63° (ENE) 2,942 ? 68.0°
